����,���ϕ���(m/s),���ϕ���,�ő�u�ԕ���(m/s),�ő啗��������,�C��(��),���x(%),10���Ԉړ��ώZ�J��(mm),1���Ԉړ��ώZ�J��(mm),���J��(mm),�݌v�J��(mm),����(���ώZ)(MJ/m2),����(���ώZ)(min),���n�C��(hPa),�C�ʋC��(hPa)
2022-08-29T00:00:00+09:00,1,�k,2.3,�k�k��,19.6,84,0,0,0,0,16.45,412,1003.6,1017.3
2022-08-29T00:01:00+09:00,1.1,�k�k��,2.5,�k�k��,19.7,84.1,0,0,0,0,0,0,1003.6,1017.2
2022-08-29T00:02:00+09:00,1.2,�k�k��,2.7,�k,19.6,83.3,0,0,0,0,0,0,1003.5,1017.1
2022-08-29T00:03:00+09:00,1.2,�k�k��,2.7,�k,19.5,82.8,0,0,0,0,0,0,1003.5,1017.2
2022-08-29T00:04:00+09:00,1.2,�k,2.7,�k,19.6,83,0,0,0,0,0,0,1003.5,1017.1
2022-08-29T00:05:00+09:00,1.2,�k�k��,2.7,�k,19.4,82.8,0,0,0,0,0,0,1003.5,1017.2
2022-08-29T00:06:00+09:00,1.2,�k�k��,2.7,�k,19.3,83.1,0,0,0,0,0,0,1003.5,1017.2
2022-08-29T00:07:00+09:00,1.3,�k,2.7,�k,19.3,83.6,0,0,0,0,0,0,1003.6,1017.3
2022-08-29T00:08:00+09:00,1.3,�k,2.7,�k,19.4,84.4,0,0,0,0,0,0,1003.5,1017.2
2022-08-29T00:09:00+09:00,1.2,�k,2.7,�k,19.4,84.1,0,0,0,0,0,0,1003.5,1017.2
2022-08-29T00:10:00+09:00,1.2,�k,2.7,�k,19.2,84,0,0,0,0,0,0,1003.6,1017.3
2022-08-29T00:11:00+09:00,1,�k�k��,2.7,�k,19.1,84.1,0,0,0,0,0,0,1003.6,1017.3
2022-08-29T00:12:00+09:00,0.9,�k�k��,2,���k��,19.3,85.2,0,0,0,0,0,0,1003.6,1017.3
2022-08-29T00:13:00+09:00,0.9,�k�k��,2,���k��,19.3,85.2,0,0,0,0,0,0,1003.6,1017.3
2022-08-29T00:14:00+09:00,0.9,�k�k��,2,���k��,19.3,85.1,0,0,0,0,0,0,1003.6,1017.3
2022-08-29T00:15:00+09:00,1.1,�k�k��,2.6,�k�k��,19.4,85.1,0,0,0,0,0,0,1003.6,1017.3
2022-08-29T00:16:00+09:00,1.2,�k,2.6,�k�k��,19.5,85.4,0,0,0,0,0,0,1003.6,1017.3
2022-08-29T00:17:00+09:00,1.2,�k,2.6,�k�k��,19.4,84.5,0,0,0,0,0,0,1003.6,1017.3
2022-08-29T00:18:00+09:00,1.2,�k,2.6,�k�k��,19.6,84.7,0,0,0,0,0,0,1003.6,1017.3
2022-08-29T00:19:00+09:00,1.2,�k,2.6,�k�k��,19.4,84.3,0,0,0,0,0,0,1003.6,1017.3
2022-08-29T00:20:00+09:00,1.2,�k,2.6,�k�k��,19.5,84.2,0,0,0,0,0,0,1003.6,1017.3
2022-08-29T00:21:00+09:00,1.2,�k,2.6,�k�k��,19.4,84.3,0,0,0,0,0,0,1003.6,1017.3
2022-08-29T00:22:00+09:00,1.3,�k�k��,2.6,�k�k��,19.2,83.8,0,0,0,0,0,0,1003.6,1017.3
2022-08-29T00:23:00+09:00,1.3,�k�k��,2.6,�k�k��,19.1,84.1,0,0,0,0,0,0,1003.6,1017.3
2022-08-29T00:24:00+09:00,1.3,�k�k��,2.6,�k�k��,19.1,84.6,0,0,0,0,0,0,1003.6,1017.3
2022-08-29T00:25:00+09:00,1.3,�k�k��,2.5,�k��,19.1,85.1,0,0,0,0,0,0,1003.6,1017.3
2022-08-29T00:26:00+09:00,1.2,�k��,2.3,�k,19.1,85.8,0,0,0,0,0,0,1003.6,1017.3
2022-08-29T00:27:00+09:00,1.2,�k��,2.3,�k,19.1,85.7,0,0,0,0,0,0,1003.6,1017.3
2022-08-29T00:28:00+09:00,1.2,�k��,2,�k��,19.1,85.9,0,0,0,0,0,0,1003.6,1017.3
2022-08-29T00:29:00+09:00,1.3,�k��,2,�k��,19.2,86.2,0,0,0,0,0,0,1003.6,1017.3
2022-08-29T00:30:00+09:00,1.3,�k��,2,�k��,19.2,86.2,0,0,0,0,0,0,1003.6,1017.3
2022-08-29T00:31:00+09:00,1.3,�k��,2,�k��,19,85.5,0,0,0,0,0,0,1003.6,1017.3
2022-08-29T00:32:00+09:00,1.3,�k��,2,�k��,19.1,86.1,0,0,0,0,0,0,1003.7,1017.4
2022-08-29T00:33:00+09:00,1.3,�k�k��,2,�k��,19.2,86.5,0,0,0,0,0,0,1003.7,1017.4
2022-08-29T00:34:00+09:00,1.3,�k�k��,2,�k��,19,85.8,0,0,0,0,0,0,1003.7,1017.4
2022-08-29T00:35:00+09:00,1.2,�k�k��,2,�k��,19,85.9,0,0,0,0,0,0,1003.7,1017.4
2022-08-29T00:36:00+09:00,1.2,�k�k��,2,�k��,19.1,86.4,0,0,0,0,0,0,1003.7,1017.4
2022-08-29T00:37:00+09:00,1.1,�k�k��,2,�k��,19.2,86.1,0,0,0,0,0,0,1003.7,1017.4
2022-08-29T00:38:00+09:00,1.1,�k�k��,2.3,�k,19.1,86.2,0,0,0,0,0,0,1003.6,1017.3
2022-08-29T00:39:00+09:00,1,�k�k��,2.3,�k,19.1,86,0,0,0,0,0,0,1003.6,1017.3
2022-08-29T00:40:00+09:00,1.1,�k�k��,3.1,�k�k��,19.1,86.1,0,0,0,0,0,0,1003.6,1017.3
2022-08-29T00:41:00+09:00,1.1,�k,3.1,�k�k��,19.3,86.2,0,0,0,0,0,0,1003.6,1017.3
2022-08-29T00:42:00+09:00,1,�k�k��,3.1,�k�k��,19.1,85.7,0,0,0,0,0,0,1003.6,1017.3
2022-08-29T00:43:00+09:00,1,�k�k��,3.1,�k�k��,19.2,85.9,0,0,0,0,0,0,1003.6,1017.3
2022-08-29T00:44:00+09:00,1,�k,3.1,�k�k��,19.3,86.1,0,0,0,0,0,0,1003.6,1017.3
2022-08-29T00:45:00+09:00,1.1,�k,3.1,�k�k��,19.3,85.8,0,0,0,0,0,0,1003.6,1017.3
2022-08-29T00:46:00+09:00,1.3,�k,3.1,�k�k��,19.2,85.6,0,0,0,0,0,0,1003.6,1017.3
2022-08-29T00:47:00+09:00,1.3,�k,3.1,�k�k��,19.3,85.4,0,0,0,0,0,0,1003.6,1017.3
2022-08-29T00:48:00+09:00,1.3,�k,3.1,�k�k��,19.4,85.5,0,0,0,0,0,0,1003.6,1017.3
2022-08-29T00:49:00+09:00,1.4,�k,3.1,�k�k��,19.3,85.3,0,0,0,0,0,0,1003.6,1017.3
2022-08-29T00:50:00+09:00,1.3,�k,2.8,�k�k��,19.1,84.9,0,0,0,0,0,0,1003.6,1017.3
2022-08-29T00:51:00+09:00,1.3,�k,2.8,�k�k��,19.1,85.3,0,0,0,0,0,0,1003.6,1017.3
2022-08-29T00:52:00+09:00,1.3,�k,2.8,�k�k��,19.1,85.2,0,0,0,0,0,0,1003.6,1017.3
2022-08-29T00:53:00+09:00,1.3,�k,2.8,�k�k��,19,85.7,0,0,0,0,0,0,1003.6,1017.3
2022-08-29T00:54:00+09:00,1.2,�k,2.8,�k�k��,18.9,85.8,0,0,0,0,0,0,1003.6,1017.3
2022-08-29T00:55:00+09:00,1.1,�k�k��,2.8,�k�k��,19,86.1,0,0,0,0,0,0,1003.6,1017.3
2022-08-29T00:56:00+09:00,1,�k�k��,2.8,�k�k��,19,86.6,0,0,0,0,0,0,1003.5,1017.2
2022-08-29T00:57:00+09:00,0.9,�k�k��,2.2,�k�k��,18.9,86.5,0,0,0,0,0,0,1003.5,1017.2
2022-08-29T00:58:00+09:00,0.8,�k�k��,2.2,�k�k��,18.9,86.7,0,0,0,0,0,0,1003.5,1017.2
2022-08-29T00:59:00+09:00,0.8,�k�k��,2.2,�k�k��,18.9,87.3,0,0,0,0,0,0,1003.4,1017.1
2022-08-29T01:00:00+09:00,0.8,�k�k��,2.2,�k�k��,18.9,87.2,0,0,0,0,0,0,1003.4,1017.1
2022-08-29T01:01:00+09:00,0.8,�k�k��,2.2,�k�k��,18.7,87.1,0,0,0,0,0,0,1003.4,1017.1
2022-08-29T01:02:00+09:00,0.9,�k�k��,2.2,�k�k��,18.7,87.2,0,0,0,0,0,0,1003.4,1017.1
2022-08-29T01:03:00+09:00,1,�k�k��,2.3,�k��,18.8,88.1,0,0,0,0,0,0,1003.4,1017.1
2022-08-29T01:04:00+09:00,1.1,�k�k��,2.6,�k��,18.7,88,0,0,0,0,0,0,1003.4,1017.1
2022-08-29T01:05:00+09:00,1.2,�k�k��,2.6,�k��,18.6,88,0,0,0,0,0,0,1003.3,1017
2022-08-29T01:06:00+09:00,1.2,�k��,2.6,�k��,18.7,88.4,0,0,0,0,0,0,1003.3,1017
2022-08-29T01:07:00+09:00,1.4,�k��,2.6,�k��,18.7,88.8,0,0,0,0,0,0,1003.3,1017
2022-08-29T01:08:00+09:00,1.4,�k��,2.6,�k��,18.6,88.6,0,0,0,0,0,0,1003.3,1017
2022-08-29T01:09:00+09:00,1.4,�k��,2.6,�k��,18.5,88.4,0,0,0,0,0,0,1003.3,1017
2022-08-29T01:10:00+09:00,1.5,�k��,3,�k�k��,18.7,88.8,0,0,0,0,0,0,1003.3,1017
2022-08-29T01:11:00+09:00,1.6,�k�k��,3,�k�k��,18.8,89.2,0,0,0,0,0,0,1003.3,1017
2022-08-29T01:12:00+09:00,1.7,�k�k��,3,�k�k��,18.8,89,0,0,0,0,0,0,1003.3,1017
2022-08-29T01:13:00+09:00,1.7,�k�k��,3,�k�k��,18.9,88.7,0,0,0,0,0,0,1003.3,1017
2022-08-29T01:14:00+09:00,1.7,�k�k��,3,�k�k��,19,88.4,0,0,0,0,0,0,1003.3,1017
2022-08-29T01:15:00+09:00,1.6,�k,3,�k�k��,19,87.9,0,0,0,0,0,0,1003.4,1017.1
2022-08-29T01:16:00+09:00,1.6,�k,3,�k�k��,19.1,88,0,0,0,0,0,0,1003.4,1017.1
2022-08-29T01:17:00+09:00,1.6,�k,3,�k�k��,19.2,87.6,0,0,0,0,0,0,1003.4,1017.1
2022-08-29T01:18:00+09:00,1.6,�k,3,�k�k��,19,86.7,0,0,0,0,0,0,1003.4,1017.1
2022-08-29T01:19:00+09:00,1.5,�k,3,�k�k��,18.7,86,0,0,0,0,0,0,1003.4,1017.1
2022-08-29T01:20:00+09:00,1.4,�k,2.9,�k�k��,18.6,86.3,0,0,0,0,0,0,1003.4,1017.1
2022-08-29T01:21:00+09:00,1.2,�k�k��,2.6,�k�k��,18.5,86.9,0,0,0,0,0,0,1003.4,1017.1
2022-08-29T01:22:00+09:00,1.1,�k�k��,2.3,�k�k��,18.5,87.8,0,0,0,0,0,0,1003.4,1017.1
2022-08-29T01:23:00+09:00,1,�k��,2.3,�k�k��,18.6,88.5,0,0,0,0,0,0,1003.3,1017
2022-08-29T01:24:00+09:00,0.8,�k��,2.3,�k�k��,18.6,88.6,0,0,0,0,0,0,1003.3,1017
2022-08-29T01:25:00+09:00,0.8,�k��,1.7,�k��,18.5,88.7,0,0,0,0,0,0,1003.3,1017
2022-08-29T01:26:00+09:00,0.7,�k��,1.5,�k��,18.4,88.6,0,0,0,0,0,0,1003.3,1017
2022-08-29T01:27:00+09:00,0.6,�k��,1.5,�k��,18.5,88.9,0,0,0,0,0,0,1003.3,1017
2022-08-29T01:28:00+09:00,0.5,�k��,1.4,�k��,18.4,89.1,0,0,0,0,0,0,1003.3,1017
2022-08-29T01:29:00+09:00,0.5,�k�k��,1.4,�k��,18.5,89.2,0,0,0,0,0,0,1003.3,1017
2022-08-29T01:30:00+09:00,0.4,�k�k��,1.4,�k��,18.5,89.4,0,0,0,0,0,0,1003.3,1017
2022-08-29T01:31:00+09:00,0.4,�k,1.4,�k��,18.5,89.5,0,0,0,0,0,0,1003.2,1016.9
2022-08-29T01:32:00+09:00,0.4,�k,1.3,�k�k��,18.6,89.5,0,0,0,0,0,0,1003.2,1016.9
2022-08-29T01:33:00+09:00,0.4,�k,1.3,�k�k��,18.5,89.6,0,0,0,0,0,0,1003.2,1016.9
2022-08-29T01:34:00+09:00,0.4,�k,1.3,�k�k��,18.6,89.4,0,0,0,0,0,0,1003.1,1016.8
2022-08-29T01:35:00+09:00,0.4,�k,1.4,�k�k��,18.6,89.3,0,0,0,0,0,0,1003.1,1016.8
2022-08-29T01:36:00+09:00,0.4,�k,1.4,�k�k��,18.5,89,0,0,0,0,0,0,1003.2,1016.9
2022-08-29T01:37:00+09:00,0.4,�k,1.4,�k�k��,18.5,88.8,0,0,0,0,0,0,1003.1,1016.8
2022-08-29T01:38:00+09:00,0.4,�k,1.4,�k�k��,18.5,89,0,0,0,0,0,0,1003.1,1016.8
2022-08-29T01:39:00+09:00,0.4,�k,1.4,�k�k��,18.5,89.4,0,0,0,0,0,0,1003.2,1016.9
2022-08-29T01:40:00+09:00,0.4,�k�k��,1.4,�k�k��,18.5,89.2,0,0,0,0,0,0,1003.2,1016.9
2022-08-29T01:41:00+09:00,0.3,�k�k��,1.4,�k�k��,18.5,89.3,0,0,0,0,0,0,1003.2,1016.9
2022-08-29T01:42:00+09:00,0.3,�k�k��,1.4,�k�k��,18.4,89.1,0,0,0,0,0,0,1003.2,1016.9
2022-08-29T01:43:00+09:00,0.4,�k,1.4,�k�k��,18.5,89.7,0,0,0,0,0,0,1003.2,1016.9
2022-08-29T01:44:00+09:00,0.4,�k,1.4,�k�k��,18.6,89.8,0,0,0,0,0,0,1003.2,1016.9
2022-08-29T01:45:00+09:00,0.4,�k,1.4,�k��,18.8,90.1,0,0,0,0,0,0,1003.2,1016.9
2022-08-29T01:46:00+09:00,0.5,�k,1.4,�k��,18.9,89.7,0,0,0,0,0,0,1003.2,1016.9
2022-08-29T01:47:00+09:00,0.5,�k,1.4,�k��,18.8,89.1,0,0,0,0,0,0,1003.2,1016.9
2022-08-29T01:48:00+09:00,0.6,�k,1.4,�k��,18.7,88.4,0,0,0,0,0,0,1003.2,1016.9
2022-08-29T01:49:00+09:00,0.7,�k,1.5,�k�k��,18.7,88.3,0,0,0,0,0,0,1003.2,1016.9
2022-08-29T01:50:00+09:00,0.7,�k�k��,1.7,�k�k��,18.7,88.4,0,0,0,0,0,0,1003.2,1016.9
2022-08-29T01:51:00+09:00,0.8,�k�k��,1.7,�k�k��,18.8,88.3,0,0,0,0,0,0,1003.2,1016.9
2022-08-29T01:52:00+09:00,0.8,�k,1.7,�k�k��,18.8,88.4,0,0,0,0,0,0,1003.2,1016.9
2022-08-29T01:53:00+09:00,0.8,�k,1.7,�k�k��,18.9,88.6,0,0,0,0,0,0,1003.3,1017
2022-08-29T01:54:00+09:00,0.8,�k,1.7,�k�k��,18.9,87.9,0,0,0,0,0,0,1003.2,1016.9
2022-08-29T01:55:00+09:00,0.7,�k,1.7,�k�k��,18.8,87.6,0,0,0,0,0,0,1003.3,1017
2022-08-29T01:56:00+09:00,0.7,�k,1.7,�k�k��,18.7,87.6,0,0,0,0,0,0,1003.3,1017
2022-08-29T01:57:00+09:00,0.7,�k,1.7,�k�k��,18.5,87.2,0,0,0,0,0,0,1003.3,1017
2022-08-29T01:58:00+09:00,0.7,�k�k��,1.7,�k�k��,18.5,87.7,0,0,0,0,0,0,1003.3,1017
2022-08-29T01:59:00+09:00,0.6,�k�k��,1.7,�k�k��,18.5,88.5,0,0,0,0,0,0,1003.3,1017
2022-08-29T02:00:00+09:00,0.5,�k�k��,1.4,�k,18.4,88.6,0,0,0,0,0,0,1003.3,1017
2022-08-29T02:01:00+09:00,0.5,�k�k��,1.4,�k,18.5,88.9,0,0,0,0,0,0,1003.3,1017
2022-08-29T02:02:00+09:00,0.5,�k�k��,1.4,�k,18.3,89,0,0,0,0,0,0,1003.3,1017
2022-08-29T02:03:00+09:00,0.5,�k��,1.2,�k,18.2,89.4,0,0,0,0,0,0,1003.3,1017
2022-08-29T02:04:00+09:00,0.4,�k��,1,�k��,18.3,89.7,0,0,0,0,0,0,1003.3,1017
2022-08-29T02:05:00+09:00,0.4,�k��,1,�k��,18.2,90.1,0,0,0,0,0,0,1003.2,1016.9
2022-08-29T02:06:00+09:00,0.4,�k��,1,�k��,18.3,90.3,0,0,0,0,0,0,1003.2,1016.9
2022-08-29T02:07:00+09:00,0.5,�k��,1,�k��,18.4,90.6,0,0,0,0,0,0,1003.2,1016.9
2022-08-29T02:08:00+09:00,0.4,�k��,1,�k��,18.4,90.7,0,0,0,0,0,0,1003.3,1017
2022-08-29T02:09:00+09:00,0.4,�k��,1,�k��,18.3,90.4,0,0,0,0,0,0,1003.3,1017
2022-08-29T02:10:00+09:00,0.4,�k��,1,�k��,18.3,90.4,0,0,0,0,0,0,1003.3,1017
2022-08-29T02:11:00+09:00,0.5,�k��,1,�k��,18.3,90.3,0,0,0,0,0,0,1003.3,1017
2022-08-29T02:12:00+09:00,0.5,�k��,1,�k��,18.3,90.3,0,0,0,0,0,0,1003.3,1017
2022-08-29T02:13:00+09:00,0.4,�k��,0.9,���k��,18.1,90,0,0,0,0,0,0,1003.3,1017
2022-08-29T02:14:00+09:00,0.4,�k��,0.9,���k��,18,89.9,0,0,0,0,0,0,1003.3,1017
2022-08-29T02:15:00+09:00,0.3,�k�k��,0.9,���k��,18.1,90.7,0,0,0,0,0,0,1003.3,1017
2022-08-29T02:16:00+09:00,0.3,�k�k��,0.9,���k��,18,91,0,0,0,0,0,0,1003.3,1017
2022-08-29T02:17:00+09:00,0.3,�k�k��,1,�k,18.1,91.3,0,0,0,0,0,0,1003.3,1017
2022-08-29T02:18:00+09:00,0.3,�k�k��,1.2,�k�k��,18.1,91.7,0,0,0,0,0,0,1003.3,1017
2022-08-29T02:19:00+09:00,0.4,�k�k��,1.2,�k�k��,18.2,92,0,0,0,0,0,0,1003.3,1017
2022-08-29T02:20:00+09:00,0.3,�k�k��,1.2,�k�k��,18.2,92,0,0,0,0,0,0,1003.3,1017
2022-08-29T02:21:00+09:00,0.3,�k�k��,1.2,�k�k��,18.2,91.5,0,0,0,0,0,0,1003.3,1017
2022-08-29T02:22:00+09:00,0.4,�k�k��,1.2,�k�k��,18.2,91.5,0,0,0,0,0,0,1003.3,1017
2022-08-29T02:23:00+09:00,0.4,�k,1.5,�k�k��,18.3,91.4,0,0,0,0,0,0,1003.4,1017.1
2022-08-29T02:24:00+09:00,0.5,�k�k��,1.5,�k�k��,18.3,91.4,0,0,0,0,0,0,1003.4,1017.1
2022-08-29T02:25:00+09:00,0.5,�k,1.5,�k�k��,18.2,90.8,0,0,0,0,0,0,1003.4,1017.1
2022-08-29T02:26:00+09:00,0.6,�k,1.5,�k�k��,18.4,91.1,0,0,0,0,0,0,1003.4,1017.1
2022-08-29T02:27:00+09:00,0.6,�k,1.5,�k�k��,18.3,90.9,0,0,0,0,0,0,1003.5,1017.2
2022-08-29T02:28:00+09:00,0.6,�k,1.5,�k�k��,18.2,90.5,0,0,0,0,0,0,1003.5,1017.2
2022-08-29T02:29:00+09:00,0.5,�k,1.5,�k�k��,18.2,90.4,0,0,0,0,0,0,1003.5,1017.2
2022-08-29T02:30:00+09:00,0.6,�k,1.5,�k�k��,18.2,90.5,0,0,0,0,0,0,1003.5,1017.2
2022-08-29T02:31:00+09:00,0.5,�k,1.5,�k�k��,18.1,90.5,0,0,0,0,0,0,1003.5,1017.2
2022-08-29T02:32:00+09:00,0.5,�k,1.5,�k�k��,18.1,90.7,0,0,0,0,0,0,1003.5,1017.2
2022-08-29T02:33:00+09:00,0.4,�k,1.1,�k,18.1,90.8,0,0,0,0,0,0,1003.5,1017.2
2022-08-29T02:34:00+09:00,0.4,�k,1.1,�k,18.1,90.9,0,0,0,0,0,0,1003.5,1017.2
2022-08-29T02:35:00+09:00,0.4,�k,1.1,�k,18.1,91.2,0,0,0,0,0,0,1003.5,1017.2
2022-08-29T02:36:00+09:00,0.3,�k,1,���k��,18.3,91.8,0,0,0,0,0,0,1003.5,1017.2
2022-08-29T02:37:00+09:00,0.3,�k,1,���k��,18.3,91.7,0,0,0,0,0,0,1003.5,1017.2
2022-08-29T02:38:00+09:00,0.3,�k�k��,1,���k��,18.2,91.3,0,0,0,0,0,0,1003.5,1017.2
2022-08-29T02:39:00+09:00,0.3,�k�k��,1,���k��,17.8,90.1,0,0,0,0,0,0,1003.5,1017.2
2022-08-29T02:40:00+09:00,0.3,�k�k��,0.9,�k��,17.9,90.4,0,0,0,0,0,0,1003.5,1017.2
2022-08-29T02:41:00+09:00,0.3,�k�k��,0.9,�k��,18,91.5,0,0,0,0,0,0,1003.5,1017.2
2022-08-29T02:42:00+09:00,0.4,�k�k��,0.9,�k��,18,92,0,0,0,0,0,0,1003.5,1017.2
2022-08-29T02:43:00+09:00,0.4,�k�k��,0.9,�k��,18,92.2,0,0,0,0,0,0,1003.5,1017.2
2022-08-29T02:44:00+09:00,0.4,�k�k��,0.9,�k��,18.1,92.2,0,0,0,0,0,0,1003.5,1017.2
2022-08-29T02:45:00+09:00,0.4,�k�k��,0.9,�k��,18.3,92.7,0,0,0,0,0,0,1003.5,1017.2
2022-08-29T02:46:00+09:00,0.4,�k�k��,0.9,�k��,18.1,92,0,0,0,0,0,0,1003.5,1017.2
2022-08-29T02:47:00+09:00,0.5,�k�k��,0.9,�k��,18.2,91.9,0,0,0,0,0,0,1003.5,1017.2
2022-08-29T02:48:00+09:00,0.5,�k�k��,1,�k�k��,18.2,91.8,0,0,0,0,0,0,1003.5,1017.2
2022-08-29T02:49:00+09:00,0.5,�k�k��,1,�k�k��,18.2,91.7,0,0,0,0,0,0,1003.5,1017.2
2022-08-29T02:50:00+09:00,0.5,�k�k��,1,�k�k��,18.1,91.1,0,0,0,0,0,0,1003.5,1017.2
2022-08-29T02:51:00+09:00,0.5,�k�k��,1,�k�k��,18.1,91.2,0,0,0,0,0,0,1003.5,1017.2
2022-08-29T02:52:00+09:00,0.5,�k,1,�k�k��,18,90.9,0,0,0,0,0,0,1003.5,1017.2
2022-08-29T02:53:00+09:00,0.4,�k,1,�k�k��,17.9,91.2,0,0,0,0,0,0,1003.5,1017.2
2022-08-29T02:54:00+09:00,0.4,�k,1,�k�k��,18,91.7,0,0,0,0,0,0,1003.5,1017.2
2022-08-29T02:55:00+09:00,0.3,�k,1,�k�k��,18,91.9,0,0,0,0,0,0,1003.4,1017.1
2022-08-29T02:56:00+09:00,0.3,�k,1,�k�k��,17.9,91.9,0,0,0,0,0,0,1003.4,1017.1
2022-08-29T02:57:00+09:00,0.3,�k,1,�k�k��,18,92.2,0,0,0,0,0,0,1003.4,1017.1
2022-08-29T02:58:00+09:00,0.4,�k�k��,1.1,�k�k��,18.3,92.7,0,0,0,0,0,0,1003.4,1017.1
2022-08-29T02:59:00+09:00,0.4,�k�k��,1.1,�k�k��,18.2,92.8,0,0,0,0,0,0,1003.4,1017.1
2022-08-29T03:00:00+09:00,0.4,�k�k��,1.1,�k�k��,18.1,91.9,0,0,0,0,0,0,1003.5,1017.2
2022-08-29T03:01:00+09:00,0.4,�k,1.1,�k�k��,18,91.4,0,0,0,0,0,0,1003.5,1017.2
2022-08-29T03:02:00+09:00,0.4,�k�k��,1.1,�k�k��,18.1,91.5,0,0,0,0,0,0,1003.5,1017.2
2022-08-29T03:03:00+09:00,0.4,�k�k��,1.1,�k�k��,18,91.8,0,0,0,0,0,0,1003.5,1017.2
2022-08-29T03:04:00+09:00,0.4,�k�k��,1.1,�k�k��,18,91.5,0,0,0,0,0,0,1003.5,1017.2
2022-08-29T03:05:00+09:00,0.4,�k�k��,1.1,�k�k��,18,91.8,0,0,0,0,0,0,1003.5,1017.2
2022-08-29T03:06:00+09:00,0.4,�k�k��,1.1,�k�k��,17.9,91.7,0,0,0,0,0,0,1003.6,1017.3
2022-08-29T03:07:00+09:00,0.4,�k�k��,1.1,�k�k��,17.9,91.9,0,0,0,0,0,0,1003.6,1017.3
2022-08-29T03:08:00+09:00,0.4,�k,1,�k�k��,18,92.1,0,0,0,0,0,0,1003.6,1017.3
2022-08-29T03:09:00+09:00,0.4,�k�k��,1,�k�k��,18.1,92.6,0,0,0,0,0,0,1003.6,1017.3
2022-08-29T03:10:00+09:00,0.4,�k�k��,1,�k�k��,18,92.5,0,0,0,0,0,0,1003.5,1017.2
2022-08-29T03:11:00+09:00,0.4,�k�k��,1,�k�k��,18,92,0,0,0,0,0,0,1003.5,1017.2
2022-08-29T03:12:00+09:00,0.4,�k�k��,1,�k�k��,18,92.2,0,0,0,0,0,0,1003.5,1017.2
2022-08-29T03:13:00+09:00,0.4,�k,1.1,���k��,18,92,0,0,0,0,0,0,1003.5,1017.2
2022-08-29T03:14:00+09:00,0.5,�k,1.2,�k��,18,92.2,0,0,0,0,0,0,1003.5,1017.2
2022-08-29T03:15:00+09:00,0.5,�k,1.2,�k��,18,92.2,0,0,0,0,0,0,1003.5,1017.2
2022-08-29T03:16:00+09:00,0.5,�k�k��,1.2,�k��,17.9,91.8,0,0,0,0,0,0,1003.5,1017.2
2022-08-29T03:17:00+09:00,0.5,�k�k��,1.2,�k��,18,92.1,0,0,0,0,0,0,1003.5,1017.2
2022-08-29T03:18:00+09:00,0.5,�k�k��,1.2,�k��,18,92.3,0,0,0,0,0,0,1003.5,1017.2
2022-08-29T03:19:00+09:00,0.5,�k�k��,1.2,�k��,18,92.4,0,0,0,0,0,0,1003.5,1017.2
2022-08-29T03:20:00+09:00,0.5,�k�k��,1.2,�k��,18.2,92.8,0,0,0,0,0,0,1003.5,1017.2
2022-08-29T03:21:00+09:00,0.5,�k�k��,1.2,�k��,18.1,92.7,0,0,0,0,0,0,1003.5,1017.2
2022-08-29T03:22:00+09:00,0.5,�k�k��,1.2,�k��,18,91.9,0,0,0,0,0,0,1003.5,1017.2
2022-08-29T03:23:00+09:00,0.5,�k��,1.2,�k��,18,91.9,0,0,0,0,0,0,1003.5,1017.2
2022-08-29T03:24:00+09:00,0.4,�k��,1.1,�k��,17.9,91.6,0,0,0,0,0,0,1003.5,1017.2
2022-08-29T03:25:00+09:00,0.3,�k�k��,1,��,17.9,91.8,0,0,0,0,0,0,1003.6,1017.3
2022-08-29T03:26:00+09:00,0.3,�k�k��,1,��,17.9,92,0,0,0,0,0,0,1003.6,1017.3
2022-08-29T03:27:00+09:00,0.3,�k�k��,1,��,17.9,92.4,0,0,0,0,0,0,1003.5,1017.2
2022-08-29T03:28:00+09:00,0.4,�k�k��,1.1,�k��,17.9,92.5,0,0,0,0,0,0,1003.5,1017.2
2022-08-29T03:29:00+09:00,0.4,�k,1.1,�k��,18,92.9,0,0,0,0,0,0,1003.5,1017.2
2022-08-29T03:30:00+09:00,0.5,�k,1.1,�k��,18.1,92.9,0,0,0,0,0,0,1003.5,1017.2
2022-08-29T03:31:00+09:00,0.5,�k,1.1,�k��,18,92.6,0,0,0,0,0,0,1003.5,1017.2
2022-08-29T03:32:00+09:00,0.5,�k�k��,1.1,�k��,18.1,92.5,0,0,0,0,0,0,1003.5,1017.2
2022-08-29T03:33:00+09:00,0.5,�k�k��,1.1,�k��,18.1,92.5,0,0,0,0,0,0,1003.5,1017.2
2022-08-29T03:34:00+09:00,0.5,�k�k��,1.1,�k��,18,92,0,0,0,0,0,0,1003.5,1017.2
2022-08-29T03:35:00+09:00,0.5,�k�k��,1.1,�k��,18.1,92,0,0,0,0,0,0,1003.5,1017.2
2022-08-29T03:36:00+09:00,0.6,�k�k��,1.4,�k��,18.1,92.3,0,0,0,0,0,0,1003.5,1017.2
2022-08-29T03:37:00+09:00,0.7,�k,1.4,�k��,18,91.5,0,0,0,0,0,0,1003.5,1017.2
2022-08-29T03:38:00+09:00,0.7,�k,2,�k��,18,91.5,0,0,0,0,0,0,1003.6,1017.3
2022-08-29T03:39:00+09:00,0.7,�k�k��,2,�k��,17.8,91.4,0,0,0,0,0,0,1003.6,1017.3
2022-08-29T03:40:00+09:00,0.7,�k�k��,2,�k��,17.8,91.6,0,0,0,0,0,0,1003.6,1017.3
2022-08-29T03:41:00+09:00,0.6,�k�k��,2,�k��,17.7,91.9,0,0,0,0,0,0,1003.7,1017.4
2022-08-29T03:42:00+09:00,0.6,�k��,2,�k��,17.9,92.5,0,0,0,0,0,0,1003.7,1017.4
2022-08-29T03:43:00+09:00,0.6,�k��,2,�k��,17.9,92.8,0,0,0,0,0,0,1003.7,1017.4
2022-08-29T03:44:00+09:00,0.6,�k��,2,�k��,17.9,92.9,0,0,0,0,0,0,1003.6,1017.3
2022-08-29T03:45:00+09:00,0.6,�k�k��,2,�k��,18,93.3,0,0,0,0,0,0,1003.7,1017.4
2022-08-29T03:46:00+09:00,0.6,�k�k��,2,�k��,17.9,93.1,0,0,0,0,0,0,1003.7,1017.4
2022-08-29T03:47:00+09:00,0.5,�k�k��,2,�k��,17.9,92.6,0,0,0,0,0,0,1003.7,1017.4
2022-08-29T03:48:00+09:00,0.5,�k�k��,1.5,�k�k��,17.8,92.6,0,0,0,0,0,0,1003.7,1017.4
2022-08-29T03:49:00+09:00,0.4,�k�k��,1.5,�k�k��,17.9,92.9,0,0,0,0,0,0,1003.7,1017.4
2022-08-29T03:50:00+09:00,0.4,�k�k��,1.5,�k�k��,17.8,92.7,0,0,0,0,0,0,1003.7,1017.4
2022-08-29T03:51:00+09:00,0.4,�k,1.5,�k�k��,17.9,93.1,0,0,0,0,0,0,1003.7,1017.4
2022-08-29T03:52:00+09:00,0.5,�k,1.5,�k�k��,17.8,92.8,0,0,0,0,0,0,1003.7,1017.4
2022-08-29T03:53:00+09:00,0.4,�k,1.5,�k�k��,17.7,92.9,0,0,0,0,0,0,1003.8,1017.5
2022-08-29T03:54:00+09:00,0.5,�k,1.5,�k�k��,17.7,93,0,0,0,0,0,0,1003.8,1017.5
2022-08-29T03:55:00+09:00,0.5,�k,1.5,�k�k��,17.8,93.5,0,0,0,0,0,0,1003.8,1017.5
2022-08-29T03:56:00+09:00,0.5,�k,1.5,�k�k��,17.9,93.9,0,0,0,0,0,0,1003.8,1017.5
2022-08-29T03:57:00+09:00,0.5,�k,1.5,�k�k��,18,94.1,0,0,0,0,0,0,1003.8,1017.5
2022-08-29T03:58:00+09:00,0.4,�k,1.3,�k,17.9,93.5,0,0,0,0,0,0,1003.8,1017.5
2022-08-29T03:59:00+09:00,0.4,�k,1.3,�k,18.1,93.5,0,0,0,0,0,0,1003.8,1017.5
2022-08-29T04:00:00+09:00,0.5,�k,1.3,�k,18,93.1,0,0,0,0,0,0,1003.9,1017.6
2022-08-29T04:01:00+09:00,0.5,�k�k��,1.3,�k,17.8,92.5,0,0,0,0,0,0,1003.8,1017.5
2022-08-29T04:02:00+09:00,0.5,�k�k��,1.3,�k,17.9,92.5,0,0,0,0,0,0,1003.9,1017.6
2022-08-29T04:03:00+09:00,0.5,�k�k��,1.3,�k,18.1,93.2,0,0,0,0,0,0,1003.8,1017.5
2022-08-29T04:04:00+09:00,0.5,�k�k��,1.2,�k�k��,18,93.3,0,0,0,0,0,0,1003.8,1017.5
2022-08-29T04:05:00+09:00,0.5,�k�k��,1.2,�k�k��,18.1,93.2,0,0,0,0,0,0,1003.8,1017.5
2022-08-29T04:06:00+09:00,0.5,�k�k��,1.2,�k�k��,18.1,92.8,0,0,0,0,0,0,1003.8,1017.5
2022-08-29T04:07:00+09:00,0.5,�k�k��,1.3,�k��,18.2,92.9,0,0,0,0,0,0,1003.8,1017.5
2022-08-29T04:08:00+09:00,0.5,�k�k��,1.3,�k��,18.1,92.5,0,0,0,0,0,0,1003.8,1017.5
2022-08-29T04:09:00+09:00,0.6,�k�k��,1.6,�k��,18,92.1,0,0,0,0,0,0,1003.8,1017.5
2022-08-29T04:10:00+09:00,0.6,�k�k��,1.6,�k��,18.1,91.9,0,0,0,0,0,0,1003.8,1017.5
2022-08-29T04:11:00+09:00,0.7,�k�k��,1.7,���k��,18.2,92.5,0,0,0,0,0,0,1003.8,1017.5
2022-08-29T04:12:00+09:00,0.7,�k�k��,1.7,���k��,18.2,92.5,0,0,0,0,0,0,1003.8,1017.5
2022-08-29T04:13:00+09:00,0.7,�k�k��,1.7,���k��,18.1,92,0,0,0,0,0,0,1003.9,1017.6
2022-08-29T04:14:00+09:00,0.7,�k�k��,1.7,���k��,17.7,91,0,0,0,0,0,0,1003.9,1017.6
2022-08-29T04:15:00+09:00,0.7,�k��,1.7,���k��,17.9,91.5,0,0,0,0,0,0,1003.9,1017.6
2022-08-29T04:16:00+09:00,0.7,�k��,1.7,���k��,17.8,92,0,0,0,0,0,0,1004,1017.7
2022-08-29T04:17:00+09:00,0.7,�k��,1.7,���k��,17.9,92.3,0,0,0,0,0,0,1004,1017.7
2022-08-29T04:18:00+09:00,0.7,�k��,1.7,���k��,17.9,92.8,0,0,0,0,0,0,1004,1017.7
2022-08-29T04:19:00+09:00,0.6,�k��,1.7,���k��,17.9,93.2,0,0,0,0,0,0,1004,1017.7
2022-08-29T04:20:00+09:00,0.6,�k��,1.7,���k��,17.9,93.4,0,0,0,0,0,0,1004,1017.7
2022-08-29T04:21:00+09:00,0.5,�k��,1.6,�k��,18,93.2,0,0,0,0,0,0,1004,1017.7
2022-08-29T04:22:00+09:00,0.5,�k��,1.2,�k,18.1,93.4,0,0,0,0,0,0,1004,1017.7
2022-08-29T04:23:00+09:00,0.5,�k��,1.2,�k,18,93.2,0,0,0,0,0,0,1004,1017.7
2022-08-29T04:24:00+09:00,0.5,�k��,1.2,�k,18,92.7,0,0,0,0,0,0,1004,1017.7
2022-08-29T04:25:00+09:00,0.5,�k��,1.2,�k,17.9,92.5,0,0,0,0,0,0,1004,1017.7
2022-08-29T04:26:00+09:00,0.5,�k��,1.2,�k,17.9,92.4,0,0,0,0,0,0,1004,1017.7
2022-08-29T04:27:00+09:00,0.5,�k��,1.2,�k,17.8,92.6,0,0,0,0,0,0,1004,1017.7
2022-08-29T04:28:00+09:00,0.5,�k��,1.2,�k,17.8,92.4,0,0,0,0,0,0,1004,1017.7
2022-08-29T04:29:00+09:00,0.4,�k��,1.2,�k,17.8,92.6,0,0,0,0,0,0,1004,1017.7
2022-08-29T04:30:00+09:00,0.4,�k��,1.1,��,17.8,93.1,0,0,0,0,0,0,1004,1017.7
2022-08-29T04:31:00+09:00,0.4,�k��,1.1,��,17.9,93.4,0,0,0,0,0,0,1004,1017.7
2022-08-29T04:32:00+09:00,0.4,�k��,1.1,��,18.1,93.9,0,0,0,0,0,0,1004,1017.7
2022-08-29T04:33:00+09:00,0.4,�k��,1.1,��,18.1,94,0,0,0,0,0,0,1004,1017.7
2022-08-29T04:34:00+09:00,0.4,�k��,1,�k�k��,18.1,93.5,0,0,0,0,0,0,1004,1017.7
2022-08-29T04:35:00+09:00,0.4,�k��,1,�k�k��,18.2,93.2,0,0,0,0,0,0,1004,1017.7
2022-08-29T04:36:00+09:00,0.4,�k��,1,�k�k��,17.9,92.4,0,0,0,0,0,0,1004,1017.7
2022-08-29T04:37:00+09:00,0.5,�k��,1,�k�k��,17.8,91.9,0,0,0,0,0,0,1004,1017.7
2022-08-29T04:38:00+09:00,0.4,�k��,1,�k�k��,17.7,91.8,0,0,0,0,0,0,1004,1017.7
2022-08-29T04:39:00+09:00,0.5,�k��,1,�k�k��,17.8,92.6,0,0,0,0,0,0,1004,1017.7
2022-08-29T04:40:00+09:00,0.5,�k��,1,�k�k��,17.9,93.1,0,0,0,0,0,0,1004,1017.7
2022-08-29T04:41:00+09:00,0.5,�k��,1,�k�k��,17.9,93.5,0,0,0,0,0,0,1004,1017.7
2022-08-29T04:42:00+09:00,0.4,�k��,1,�k�k��,17.8,93.3,0,0,0,0,0,0,1004,1017.7
2022-08-29T04:43:00+09:00,0.4,�k��,1,�k�k��,17.8,93.3,0,0,0,0,0,0,1004,1017.7
2022-08-29T04:44:00+09:00,0.4,�k��,0.9,�k��,17.8,93.1,0,0,0,0,0,0,1004,1017.7
2022-08-29T04:45:00+09:00,0.4,�k��,0.9,�k��,17.8,93.5,0,0,0,0,0,0,1004.1,1017.8
2022-08-29T04:46:00+09:00,0.3,�k�k��,0.8,��,17.7,93.5,0,0,0,0,0,0,1004,1017.7
2022-08-29T04:47:00+09:00,0.3,�k�k��,0.8,��,17.6,93.5,0,0,0,0,0,0,1004,1017.8
2022-08-29T04:48:00+09:00,0.3,�k,0.8,��,17.7,93.7,0,0,0,0,0,0,1004,1017.7
2022-08-29T04:49:00+09:00,0.3,�k,0.7,�k,17.9,94.4,0,0,0,0,0,0,1004.1,1017.8
2022-08-29T04:50:00+09:00,0.3,�k,0.7,�k,18,94.8,0,0,0,0,0,0,1004.1,1017.8
2022-08-29T04:51:00+09:00,0.3,�k,0.7,�k,17.8,94.3,0,0,0,0,0,0,1004.1,1017.8
2022-08-29T04:52:00+09:00,0.3,�k,0.9,���쐼,17.7,93.5,0,0,0,0,0,0,1004.1,1017.8
2022-08-29T04:53:00+09:00,0.3,�k,0.9,���쐼,17.7,93.4,0,0,0,0,0,0,1004.1,1017.8
2022-08-29T04:54:00+09:00,0.3,�k�k��,0.9,���쐼,17.7,93.7,0,0,0,0,0,0,1004.1,1017.8
2022-08-29T04:55:00+09:00,0.3,�k�k��,0.9,���쐼,17.6,93.7,0,0,0,0,0,0,1004.1,1017.9
2022-08-29T04:56:00+09:00,0.4,�k��,0.9,���쐼,17.7,94,0,0,0,0,0,0,1004.1,1017.8
2022-08-29T04:57:00+09:00,0.4,���k��,0.9,���쐼,17.8,94.5,0,0,0,0,0,0,1004.1,1017.8
2022-08-29T04:58:00+09:00,0.4,���k��,0.9,���쐼,17.7,94.5,0,0,0,0,0,0,1004.1,1017.8